Terminal Aerodrome Forecast
Issued by NWS

Home | Current Version | Previous Version | Text Only | Print | Product List | Glossary On
Versions: 1 2 3 4 5 6 7 8 9 10 11 12 13 14 15 16 17 18
747
FTUS43 KDVN 141021 AAB
TAFCID
TAF AMD
KCID 141021Z 1410/1506 14011G18KT P6SM -SN OVC040
     FM141300 14015G22KT 3/4SM -SN BR OVC010
     FM141700 15012KT 2SM -SN BR OVC015
     FM142000 13007KT 5SM -SN BR OVC020
     FM142300 15006KT 6SM BR OVC015=

USA.gov is the U.S. government's official web portal to all federal, state and local government web resources and services.